Regional Weather Roundup
Issued by NWS

Home | Current Version | Previous Version | Text Only | Print | Product List | Glossary On
Versions: 1 2 3 4 5 6 7 8 9 10 11 12 13 14 15 16 17 18 19 20 21 22 23 24 25 26 27 28 29 30 31 32 33 34 35 36 37 38 39 40 41 42 43 44 45 46 47 48 49
000
ASUS45 KREV 281410
RWRNV
NEVADA REGIONAL WEATHER ROUNDUP
NATIONAL WEATHER SERVICE RENO NV
700 AM PDT FRI AUG 28 2015

NOTE: "FAIR" INDICATES FEW OR NO CLOUDS BELOW 12,000 FEET WITH NO
SIGNIFICANT WEATHER AND/OR OBSTRUCTIONS TO VISIBILITY.

NVZ001-003-004-281500-
WESTERN NEVADA

CITY           SKY/WX    TMP DP  RH WIND       PRES   REMARKS
RENO           MOCLDY    62  42  47 S3        30.17S
CARSON CITY    FAIR      55  39  54 CALM      30.20S
MINDEN         FAIR      48  39  71 CALM      30.20S
PYRAMID LAKE     N/A     70 N/A N/A W9          N/A
FALLON         PTCLDY    60  38  43 S7        30.12S
LOVELOCK       PTCLDY    60  37  42 N3        30.12S
HAWTHORNE      CLEAR     66  39  37 CALM      30.15R
$$

NVZ002-CAZ072-073-281500-
NORTHERN AND CENTRAL SIERRA

CITY           SKY/WX    TMP DP  RH WIND       PRES   REMARKS
S. LAKE TAHOE  CLEAR     45  36  70 S3        30.29S
TRUCKEE        CLEAR     41  37  87 CALM      30.29R
SQUAW VLY 8000   N/A     54  36  50 S5          N/A
SUSANVILLE     CLEAR     52  37  58 W3        30.15R
BLUE CANYON    CLEAR     68  41  37 E5        30.21S
MAMMOTH LAKES  FAIR      43  32  65 CALM      30.36R
BRIDGEPORT     FAIR      43  30  60 CALM      30.32R
$$

NVZ030-031-036-281500-
NORTHERN NEVADA

CITY           SKY/WX    TMP DP  RH WIND       PRES   REMARKS
ELKO           MOCLDY    56  34  43 E3        30.22R
WINNEMUCCA     MOCLDY    55  36  48 CALM      30.14S
WENDOVER       MOSUNNY   68  43  40 CALM      30.19R
$$

NVZ035-037-281500-
CENTRAL NEVADA

CITY           SKY/WX    TMP DP  RH WIND       PRES   REMARKS
ELY            MOCLDY    51  42  71 S9        30.33R
EUREKA           N/A     52  32  46 SW7       30.27R
$$

NVZ013-014-281500-
SOUTH CENTRAL NEVADA

CITY           SKY/WX    TMP DP  RH WIND       PRES   REMARKS
TONOPAH        CLEAR     62  39  42 N8        30.24R
$$

NVZ017-020-022-281500-
SOUTHERN NEVADA

CITY           SKY/WX    TMP DP  RH WIND       PRES   REMARKS
LAS VEGAS      PTCLDY    84  53  34 W3        29.96R
N. LAS VEGAS   CLEAR     81  52  36 N3        29.99R
NELLIS AFB     CLEAR     80  49  34 N2        29.97R
HENDERSON      CLEAR     80  54  40 SE3       30.03R
MERCURY        CLEAR     76  48  37 CALM      30.07R
$$



USA.gov is the U.S. government's official web portal to all federal, state and local government web resources and services.